Henderson, NV

2:49 AM PDT on June 24, 2017 (GMT -0700)
Henderson

Weather History for KHND - January, 2013

Change the Weather History Date:

Thursday, January 3, 2013

  Actual Average (KLAS) Record (KLAS)
Temperature  
Mean Temperature 38 °F -  
Max Temperature 50 °F 51 °F 69 °F (1997)
Min Temperature 27 °F 31 °F 12 °F (1974)
Degree Days  
Heating Degree Days 26    
Moisture  
Dew Point 7 °F    
Average Humidity 29    
Maximum Humidity 47    
Minimum Humidity 12    
Precipitation  
Precipitation 0.00 in - - ()
Sea Level Pressure  
Sea Level Pressure 30.34 in    
Wind  
Wind Speed 6 mph (East)    
Max Wind Speed 12 mph    
Max Gust Speed -    
Visibility 10 miles    
Events      
Averages and records for this station are not official NWS values.
T = Trace of Precipitation, MM = Missing Value Source: NWS Daily Summary

Daily Weather History Graph

Daily Weather History Graph

Search for Another Location

Airport or City:

Trip Planner

Search our weather history database for the weather conditions in past years. The results will help you decide how hot, cold, wet, or windy it might be!

Date:

Astronomy

Jan. 03, 2013 Rise Set
Actual Time 6:51 AM PST 4:39 PM PST
Civil Twilight 6:23 AM PST 5:07 PM PST
Nautical Twilight 5:51 AM PST 5:39 PM PST
Astronomical Twilight 5:19 AM PST 6:10 PM PST
Moon 11:05 PM PST (1/3) 10:17 AM PST (1/3)
Length of Visible Light 10h 44m
Length of Day
9h 47m
Waning Gibbous, 64% of the Moon is Illuminated
Jan 3
Waning Gibbous
Jan 4
Last Quarter
Jan 11
New
Jan 18
First Quarter
Jan 26
Full

Hourly Weather History & Observations

Time (PST) Temp. Windchill Dew Point Humidity Pressure Visibility Wind Dir Wind Speed Gust Speed Precip Events Conditions
12:56 AM 34.9 °F 30.8 °F 11.1 °F 37% 30.28 in 10.0 mi NE 4.6 mph - N/A   Clear
1:56 AM 36.9 °F 29.6 °F 9.1 °F 32% 30.29 in 10.0 mi NE 10.4 mph - N/A   Clear
2:56 AM 36.0 °F 28.0 °F 9.1 °F 33% 30.31 in 10.0 mi ENE 11.5 mph - N/A   Clear
3:56 AM 36.0 °F 29.6 °F 7.2 °F 30% 30.31 in 10.0 mi NE 8.1 mph - N/A   Clear
5:56 AM 32.0 °F 26.4 °F 8.1 °F 37% 30.36 in 10.0 mi South 5.8 mph - N/A   Clear
6:56 AM 27.1 °F - 9.1 °F 47% 30.39 in 10.0 mi Calm Calm - N/A   Clear
7:56 AM 31.1 °F 27.7 °F 11.1 °F 43% 30.41 in 10.0 mi SSW 3.5 mph - N/A   Clear
8:56 AM 36.9 °F - 8.1 °F 30% 30.40 in 10.0 mi Calm Calm - N/A   Clear
9:56 AM 43.9 °F 41.3 °F 7.2 °F 22% 30.39 in 10.0 mi Variable 4.6 mph - N/A   Clear
10:56 AM 45.9 °F 41.2 °F 7.2 °F 21% 30.37 in 10.0 mi NNE 9.2 mph - N/A   Clear
11:56 AM 48.9 °F - 3.0 °F 15% 30.33 in 10.0 mi NE 9.2 mph - N/A   Clear
12:56 PM 50.9 °F - 1.0 °F 13% 30.31 in 10.0 mi NE 8.1 mph - N/A   Clear
1:56 PM 50.0 °F - 0.1 °F 13% 30.30 in 10.0 mi NNE 10.4 mph - N/A   Clear
2:56 PM 50.9 °F - 0.1 °F 12% 30.31 in 10.0 mi NE 8.1 mph - N/A   Clear
3:56 PM 50.0 °F - -0.4 °F 13% 30.28 in 10.0 mi NNE 8.1 mph - N/A   Clear
4:56 PM 45.9 °F - 3.0 °F 17% 30.32 in 10.0 mi Calm Calm - N/A   Clear
5:56 PM 41.0 °F - 7.2 °F 25% 30.34 in 10.0 mi Calm Calm - N/A   Clear
6:56 PM 33.8 °F 28.6 °F 8.6 °F 35% 30.29 in 10.0 mi South 5.8 mph - N/A   Clear
7:56 PM 32.9 °F 28.5 °F 9.1 °F 37% 30.36 in 10.0 mi SSE 4.6 mph - N/A   Clear
8:56 PM 32.0 °F 24.8 °F 8.1 °F 37% 30.35 in 10.0 mi SSE 8.1 mph - N/A   Clear
9:56 PM 31.1 °F 23.7 °F 8.1 °F 38% 30.35 in 10.0 mi SSE 8.1 mph - N/A   Clear
10:56 PM 30.0 °F 24.1 °F 8.1 °F 40% 30.36 in 10.0 mi South 5.8 mph - N/A   Clear
11:56 PM 30.0 °F 23.2 °F 7.2 °F 38% 30.35 in 10.0 mi SSE 6.9 mph - N/A   Clear